Weather History for Bloomington, IN

Change the Weather History Date:

Tuesday, December 13, 2011

  Actual Average Record
Temperature  
Mean Temperature 37 °F 32 °F  
Max Temperature 44 °F 41 °F 59 °F (2001)
Min Temperature 29 °F 24 °F 7 °F (2010)
Degree Days  
Heating Degree Days 28 33  
Month to date heating degree days 378 397  
Since 1 July heating degree days 1300 1453  
Cooling Degree Days 0 0  
Month to date cooling degree days 0 0  
Year to date cooling degree days 1170 927  
Moisture  
Dew Point 39 °F    
Average Humidity 90    
Maximum Humidity 100    
Minimum Humidity 79    
Precipitation  
Precipitation T in 0.09 in 0.74 in (2000)
Month to date precipitation 1.28 1.37  
Year to date precipitation 52.14 45.38  
Sea Level Pressure  
Sea Level Pressure 30.38 in    
Wind  
Wind Speed 3 mph (SSE)    
Max Wind Speed 7 mph    
Max Gust Speed 9 mph    
Visibility 4 miles    
Events Rain    
T = Trace of Precipitation, MM = Missing Value Source: NWS Daily Summary

Daily Weather History Graph

Daily Weather History Graph

Search for Another Location

Airport:

Trip Planner

Search our weather history database for the weather conditions in past years. The results will help you decide how hot, cold, wet, or windy it might be!

Date:

Astronomy

Dec. 13, 2011 Rise Set
Actual Time 7:57 AM EST 5:24 PM EST
Civil Twilight 7:26 AM EST 5:54 PM EST
Nautical Twilight 6:53 AM EST 6:27 PM EST
Astronomical Twilight 6:20 AM EST 7:00 PM EST
Moon 8:37 PM EST (12/13) 10:07 AM EST (12/13)
Length of Visible Light 10h 27m
Length of Day
9h 27m
Waning Gibbous, 90% of the Moon is Illuminated
Dec 13
Waning Gibbous
Dec 17
Last Quarter
Dec 24
New
Jan 1
First Quarter
Jan 9
Full

Hourly Weather History & Observations

Time (EST) Temp. Windchill Dew Point Humidity Pressure Visibility Wind Dir Wind Speed Gust Speed Precip Events Conditions
12:53 AM 33.1 °F - 28.0 °F 82% 30.43 in 10.0 mi Calm Calm - N/A   Overcast
1:53 AM 32.0 °F - 28.0 °F 85% 30.41 in 10.0 mi Calm Calm - N/A   Overcast
2:53 AM 30.0 °F - 27.0 °F 88% 30.42 in 10.0 mi Calm Calm - N/A   Partly Cloudy
3:53 AM 32.0 °F - 28.0 °F 85% 30.43 in 10.0 mi Calm Calm - N/A   Overcast
4:53 AM 34.0 °F - 30.0 °F 85% 30.41 in 10.0 mi Calm Calm - N/A   Overcast
7:53 AM 35.1 °F - 30.9 °F 85% 30.45 in 10.0 mi Calm Calm - N/A   Mostly Cloudy
8:53 AM 39.0 °F - 34.0 °F 82% 30.46 in 7.0 mi Calm Calm - N/A   Overcast
9:53 AM 37.9 °F - 36.0 °F 93% 30.45 in 4.0 mi Calm Calm - 0.00 in Rain Light Rain
10:53 AM 41.0 °F 39.0 °F 39.0 °F 93% 30.47 in 4.0 mi WSW 3.5 mph - 0.00 in Rain Light Rain
11:53 AM 42.1 °F 39.2 °F 39.0 °F 89% 30.47 in 4.0 mi WSW 4.6 mph - 0.00 in   Overcast
12:53 PM 42.1 °F - 39.0 °F 89% 30.45 in 5.0 mi Calm Calm - 0.00 in Rain Light Rain
1:53 PM 43.0 °F 41.3 °F 39.9 °F 89% 30.40 in 6.0 mi SSW 3.5 mph - 0.00 in   Overcast
2:03 PM 42.8 °F 41.1 °F 39.2 °F 87% 30.38 in 5.0 mi SSW 3.5 mph - N/A   Overcast
2:53 PM 44.1 °F 41.5 °F 41.0 °F 89% 30.38 in 7.0 mi South 4.6 mph - 0.00 in   Overcast
3:07 PM 44.6 °F 41.4 °F 41.0 °F 87% 30.36 in 4.0 mi SE 5.8 mph - N/A   Overcast
3:28 PM 42.8 °F 39.3 °F 41.0 °F 93% 30.37 in 4.0 mi SE 5.8 mph - N/A   Overcast
3:37 PM 42.8 °F 39.3 °F 41.0 °F 93% 30.37 in 4.0 mi SSE 5.8 mph - N/A   Overcast
3:53 PM 43.0 °F 39.5 °F 41.0 °F 93% 30.38 in 4.0 mi SE 5.8 mph - N/A   Overcast
4:40 PM 42.8 °F 38.6 °F 41.0 °F 93% 30.37 in 2.5 mi SSE 6.9 mph - N/A   Overcast
4:53 PM 43.0 °F 39.5 °F 41.0 °F 93% 30.38 in 2.5 mi SE 5.8 mph - N/A   Overcast
5:26 PM 42.8 °F 41.1 °F 41.0 °F 93% 30.37 in 3.0 mi SSE 3.5 mph - N/A   Overcast
5:53 PM 43.0 °F 40.3 °F 41.0 °F 93% 30.38 in 4.0 mi SSE 4.6 mph - N/A   Overcast
6:22 PM 42.8 °F 39.3 °F 41.0 °F 93% 30.36 in 2.5 mi SSE 5.8 mph - N/A   Overcast
6:38 PM 42.8 °F 39.3 °F 41.0 °F 93% 30.36 in 1.8 mi South 5.8 mph - N/A   Overcast
6:53 PM 43.0 °F 40.3 °F 41.0 °F 93% 30.38 in 1.8 mi South 4.6 mph - N/A   Overcast
7:38 PM 42.8 °F 41.1 °F 42.8 °F 100% 30.35 in 2.5 mi SSE 3.5 mph - N/A   Overcast
7:53 PM 43.0 °F 41.3 °F 42.1 °F 97% 30.38 in 2.5 mi SE 3.5 mph - N/A   Overcast
8:04 PM 42.8 °F 41.1 °F 42.8 °F 100% 30.36 in 2.5 mi SE 3.5 mph - N/A   Overcast
8:53 PM 43.0 °F 40.3 °F 42.1 °F 97% 30.37 in 2.5 mi SSE 4.6 mph - N/A   Overcast
9:32 PM 42.8 °F 39.3 °F 42.8 °F 100% 30.34 in 1.8 mi SSE 5.8 mph - 0.00 in   Overcast
9:53 PM 43.0 °F 40.3 °F 42.1 °F 97% 30.35 in 1.5 mi SSE 4.6 mph - 0.00 in   Overcast
10:02 PM 42.8 °F 39.3 °F 42.8 °F 100% 30.33 in 1.8 mi SSE 5.8 mph - N/A   Overcast
10:42 PM 42.8 °F 40.1 °F 42.8 °F 100% 30.32 in 1.8 mi South 4.6 mph - 0.00 in Rain Light Rain
10:53 PM 43.0 °F 40.3 °F 42.1 °F 97% 30.33 in 1.8 mi SSE 4.6 mph - 0.00 in Rain Light Rain
11:07 PM 42.8 °F 39.3 °F 42.8 °F 100% 30.31 in 2.0 mi SSE 5.8 mph - 0.00 in Rain Light Rain
11:30 PM 42.8 °F 41.1 °F 42.8 °F 100% 30.31 in 1.8 mi South 3.5 mph - 0.00 in Rain Light Rain
11:53 PM 43.0 °F 41.3 °F 42.1 °F 97% 30.32 in 2.0 mi SSE 3.5 mph - 0.00 in   Overcast